Weather Roundup
Issued by NWS Springfield, MO

Home | Current Version | Previous Version | Text Only | Print | Product List | Glossary On
Versions: 1 2 3 4 5 6 7 8 9 10 11 12 13 14 15 16 17 18 19 20 21 22 23 24 25 26 27 28 29 30 31 32 33 34 35 36 37 38 39 40 41 42 43 44 45 46 47 48 49 50
000
NZUS99 KSGF 301757
HRRSGF

HOURLY WEATHER
NATIONAL WEATHER SERVICE SPRINGFIELD MO
100 PM CDT MON MAY 30 2016

......SGF CWA......

CITY           SKY/WX    TMP DP  RH WIND       PRES   REMARKS
SPRINGFIELD    CLOUDY    80  61  52 S14       30.06S
6HR MIN TEMP:  67; 6HR MAX TEMP:  82;

JOPLIN         TSTM      66  64  93 W10G21    30.09R
6HR MIN TEMP:  66; 6HR MAX TEMP:  76; 6HR PCP:  0.48;

WEST PLAINS    PTSUNNY   82  61  48 SE6       30.09F
6HR MIN TEMP:  64; 6HR MAX TEMP:  82;

ROLLA          CLOUDY    82  61  48 VRB5      30.05F
6HR MIN TEMP:  68; 6HR MAX TEMP:  83;

BRANSON        CLOUDY    73  64  73 SW14      30.10F

......SURROUNDING SGF CWA......

CITY           SKY/WX    TMP DP  RH WIND       PRES   REMARKS
CHANUTE        CLOUDY    74  64  71 S12       30.06F
PARSONS        LGT RAIN  69  66  90 CALM      30.08S
COFFEYVILLE    PTSUNNY   73  65  75 SE3       30.05F
EMPORIA        SUNNY     82  60  47 S12       30.01F
HARRISON AR    CLOUDY    71  64  78 W5        30.10S

......KANSAS AND MISSOURI......

CITY           SKY/WX    TMP DP  RH WIND       PRES   REMARKS
KANSAS CTY INT CLOUDY    84  64  50 S15G22    30.00F
SEDALIA        MOSUNNY   85  66  53 SE10      30.04F
ST JOSEPH      SUNNY     85  60  42 SW9       29.98F
ST LOUIS       PTSUNNY   89  58  34 CALM      30.05F
WICHITA        MOSUNNY   82  63  52 S18       30.00F
TOPEKA           N/A     83  64  52 S12       29.99F
OLATHE         CLOUDY    80  68  66 S10       30.00F

......TENNESSEE......

CITY           SKY/WX    TMP DP  RH WIND       PRES   REMARKS
MEMPHIS        NOT AVBL
NASHVILLE      MOSUNNY   88  59  37 VRB5      30.03F

......ARKANSAS.......

CITY           SKY/WX    TMP DP  RH WIND       PRES   REMARKS
FAYETTEVILLE   CLOUDY    67  65  93 E3        30.09F
FT SMITH       CLOUDY    73  63  70 E10       30.06S
LITTLE ROCK    PTSUNNY   82  66  58 VRB3      30.04F

......OKLAHOMA.......

CITY           SKY/WX    TMP DP  RH WIND       PRES   REMARKS
TULSA          CLOUDY    76  66  71 SE9       30.01F
PONCA CITY     SUNNY     78  65  63 E9        30.01F
MCALESTER      CLOUDY    72  67  84 VRB7      30.02F
OKLAHOMA CITY  PTSUNNY   76  65  68 S7        30.00F

......IOWA............

CITY           SKY/WX    TMP DP  RH WIND       PRES   REMARKS
DES MOINES     NOT AVBL
QUAD CITIES    SUNNY     84  61  45 NW7       30.02F

......ILLINOIS........

CITY           SKY/WX    TMP DP  RH WIND       PRES   REMARKS
QUINCY         NOT AVBL
CHICAGO        MOSUNNY   84  60  44 NW12      30.00F




USA.gov is the U.S. government's official web portal to all federal, state and local government web resources and services.